Miscellaneous Local Product
Issued by NWS North Platte, NE

Home | Current Version | Previous Version | Text Only | Print | Product List | Glossary On
Versions: 1 2 3 4 5 6 7 8 9 10 11 12 13 14 15 16 17 18 19 20 21 22 23 24 25 26 27 28 29 30 31 32 33 34 35 36 37 38 39 40 41 42 43 44 45 46 47 48 49 50
000
AXUS43 KLBF 280810
MISLBF


WESTERN AND NORTH CENTRAL NEBRASKA HOURLY WEATHER ROUNDUP
NATIONAL WEATHER SERVICE NORTH PLATTE NE
300 AM CDT WED SEP 28 2016

NOTE: "FAIR" INDICATES FEW OR NO CLOUDS BELOW 12,000 FEET WITH NO
SIGNIFICANT WEATHER AND/OR OBSTRUCTIONS TO VISIBILITY.

NOTE: STATIONS NOT REPORTING VARIABLES SUCH AS SKY/WEATHER OR
PRESSURE ARE PROVIDED BY RAWS AND APRS NETWORKS AND ARE NOT UNDER
NATIONAL WEATHER SERVICE QUALITY CONTROL.

...OBSERVATIONS IN AND NEAR THE EASTERN PANHANDLE OF NEBRASKA...

CITY           SKY/WX    TMP DP  RH WIND       PRES   REMARKS
PINE RIDGE     CLEAR     41  39  93 NE6       30.12R
CHADRON        CLEAR     45  42  89 SW7       30.14R
ALLIANCE       CLEAR     40  38  93 W6        30.15R
SIDNEY         CLEAR     46  38  73 NW9       30.18R
CRESCENT LAKE    N/A     52  41  67 NW6         N/A
$$

...OBSERVATIONS IN NORTHERN NEBRASKA AND FAR SOUTHERN SOUTH DAKOTA...

CITY           SKY/WX    TMP DP  RH WIND       PRES   REMARKS
WINNER         FAIR      50  43  77 W3        30.08R
VALENTINE      CLEAR     46  40  79 NW3       30.08R
THEDFORD       CLEAR     48  42  81 W5        30.09R
AINSWORTH      CLEAR     47  43  84 W5        30.08R
O`NEILL        CLEAR     49  43  78 N8        30.04S
ORD            CLEAR     47  42  83 N7        30.02R
BROKEN BOW     CLEAR     44  40  85 N5        30.04R
VALENTINE NWR    N/A     47  43  87 CALM        N/A
BUTTE            N/A     51  39  64 NW3         N/A
HALSEY           N/A     52  41  65 W3          N/A
EWING            N/A     51  44  78 CALM        N/A
$$

...OBSERVATIONS IN SOUTHWEST NEBRASKA AND FAR NORTHEAST COLORADO...

CITY           SKY/WX    TMP DP  RH WIND       PRES   REMARKS
WRAY           FAIR      45  34  65 W3        30.14R
HOLYOKE        FAIR      54  37  54 NW3       30.14S
IMPERIAL       CLEAR     50  38  63 W3        30.11R
OGALLALA       CLEAR     44  40  85 W6        30.11S
NORTH PLATTE   CLEAR     45  41  86 NW6       30.08R
MCCOOK         CLEAR     49  42  77 W5        30.06R
LEXINGTON      CLEAR     47  42  84 NW8       30.05R
STAPLETON        N/A     51  42  71 CALM        N/A
GOTHENBURG       N/A     54  42  62 W6          N/A
CALLAWAY         N/A     45  42  91 NW6         N/A
$$

...OBSERVATIONS IN CENTRAL LINCOLN COUNTY AREA...

CITY           SKY/WX    TMP DP  RH WIND       PRES   REMARKS
N.P. AIRPORT   CLEAR     45  41  86 NW6       30.08R
N.P. DOWNTOWN    N/A     51  43  75 CALM        N/A
N.P. SOUTHEAST   N/A     52  43  72 CALM        N/A
N.P. HILLCREST   N/A     53  43  68 N3          N/A
$$

...SOME OBSERVATIONS FROM AROUND THE REGION...

CITY           SKY/WX    TMP DP  RH WIND       PRES   REMARKS
DENVER         CLEAR     56  27  32 SW8       30.24R
LARAMIE        CLOUDY    37  32  82 S8        30.36R WCI  31
CHEYENNE       CLOUDY    49  30  48 W12       30.29R
SCOTTSBLUFF    CLEAR     49  41  74 NW7       30.17R
RAPID CITY     CLEAR     56  41  57 NW9       30.13R
BISMARCK       CLOUDY    42  37  82 NE7       30.11R
PIERRE         CLOUDY    47  40  76 NE8       30.07R
SIOUX FALLS    CLEAR     47  41  80 N8        30.02R
OMAHA          CLEAR     53  48  83 N9        29.94R
GRAND ISLAND   CLEAR     50  45  83 NW6       30.01R
KANSAS CITY    CLEAR     60  53  77 W7        29.87R
WICHITA        CLEAR     58  54  86 SW7       29.92S
OKLAHOMA CITY  CLEAR     58  50  75 SW7       30.00S
DALLAS         PTCLDY    61  51  70 SW5       30.00F
AMARILLO       CLOUDY    56  40  55 SW10      30.12S
DODGE CITY     CLEAR     65  40  39 W13       30.02R
HAYS           CLEAR     55  41  58 NW6       29.99R
GOODLAND       CLEAR     49  39  68 W8        30.10R
$$




USA.gov is the U.S. government's official web portal to all federal, state and local government web resources and services.